Location: Gravenhurst
(44.9196°N, 79.3742°W)
Time: 06:12:39
(UTC-05:00)

Envisat - Pass Details

Date: 21 October 2019
Orbit: 764 x 766 km, 98.1° (Epoch: 17 November)

Event Time Altitude Azimuth Distance (km) Brightness Sun altitude
Rises 19:32:14 0° 173° (S) 3,219 6.2 -13.0°
Reaches altitude 10° 19:34:33 10° 177° (S) 2,297 5.5 -13.4°
Maximum altitude 19:39:34 64° 259° (WSW) 847 3.5 -14.3°
Drops below altitude 10° 19:44:38 10° 341° (NNW) 2,313 5.7 -15.2°
Sets 19:46:59 0° 344° (NNW) 3,243 6.5 -15.6°
